******************************************************************************* JPL/HORIZONS (2023 CX1) 2025-Dec-12 17:59:33 Rec #:50531653 (+COV) Soln.date: 2024-Oct-03_12:45:18 # obs: 331 (1 days) IAU76/J2000 helio. ecliptic osc. elements (au, days, deg., period=Julian yrs): EPOCH= 2459987.5 ! 2023-Feb-12.00 (TDB) Residual RMS= .92595 EC= .4370968125193705 QR= .920831140000289 TP= 2460019.1122795637 OM= 323.8472564761982 W= 218.8364788876123 IN= 3.43524756360265 A= 1.63586058931666 MA= 345.1084311617908 ADIST= 2.350890038633031 PER= 2.09232 N= .471069124 ANGMOM= .019788572 DAN= 2.00647 DDN= .98721 L= 182.6334108 B= -2.1534598 MOID= 3.101E-5 TP= 2023-Mar-15.6122795637 Asteroid physical parameters (km, seconds, rotational period in hours): GM= n.a. RAD= n.a. ROTPER= n.a. H= 32.72 G= .150 B-V= n.a. ALBEDO= n.a. STYP= n.a. ASTEROID comments: 1: soln ref.= JPL#14, OCC=4 2: source=ORB; See Egal et al. (2025) ******************************************************************************* ******************************************************************************* Ephemeris / WWW_USER Fri Dec 12 17:59:33 2025 Pasadena, USA / Horizons ******************************************************************************* Target body name: (2023 CX1) {source: JPL#14} Center body name: Earth (399) {source: DE441} Center-site name: GEOCENTRIC ******************************************************************************* Start time : A.D. 2021-Feb-12 00:00:00.0000 UT Stop time : A.D. 2021-Feb-14 00:00:00.0000 UT Step-size : 180 minutes ******************************************************************************* Target pole/equ : undefined Target radii : undefined Center geodetic : 0.0, 0.0, -6378.137 {E-lon(deg),Lat(deg),Alt(km)} Center cylindric: 0.0, 0.0, 0.0 {E-lon(deg),Dxy(km),Dz(km)} Center pole/equ : ITRF93 {East-longitude positive} Center radii : 6378.137, 6378.137, 6356.752 km {Equator_a, b, pole_c} Target primary : Sun Vis. interferer : MOON (R_eq= 1737.400) km {source: DE441} Rel. light bend : Sun {source: DE441} Rel. lght bnd GM: 1.3271E+11 km^3/s^2 Small-body perts: Yes {source: SB441-N16} Atmos refraction: NO (AIRLESS) RA format : HMS Time format : CAL Calendar mode : Mixed Julian/Gregorian EOP file : eop.251212.p260310 EOP coverage : DATA-BASED 1962-JAN-20 TO 2025-DEC-12. PREDICTS-> 2026-MAR-09 Units conversion: 1 au= 149597870.700 km, c= 299792.458 km/s, 1 day= 86400.0 s Table cut-offs 1: Elevation (-90.0deg=NO ),Airmass (>38.000=NO), Daylight (NO ) Table cut-offs 2: Solar elongation ( 0.0,180.0=NO ),Local Hour Angle( 0.0=NO ) Table cut-offs 3: RA/DEC angular rate ( 0.0=NO ) ******************************************************************************* Initial IAU76/J2000 heliocentric ecliptic osculating elements (au, days, deg.): EPOCH= 2459987.5 ! 2023-Feb-12.00 (TDB) Residual RMS= .92595 EC= .4370968125193705 QR= .920831140000289 TP= 2460019.1122795637 OM= 323.8472564761982 W= 218.8364788876123 IN= 3.43524756360265 Equivalent ICRF heliocentric cartesian coordinates (au, au/d): X=-7.871041376208423E-01 Y= 5.534313422236974E-01 Z= 2.414598272396521E-01 VX=-8.774964515897229E-03 VY=-1.637122070435689E-02 VZ=-8.406657459246356E-03 Asteroid physical parameters (km, seconds, rotational period in hours): GM= n.a. RAD= n.a. ROTPER= n.a. H= 32.72 G= .150 B-V= n.a. ALBEDO= n.a. STYP= n.a. ******************************************************************************* Date__(UT)__HR:MN r rdot ************************************************** $$SOE 2021-Feb-12 00:00 0.922595687449 -0.3847135 2021-Feb-12 03:00 0.922569092417 -0.3520776 2021-Feb-12 06:00 0.922544853595 -0.3194369 2021-Feb-12 09:00 0.922522971311 -0.2867919 2021-Feb-12 12:00 0.922503445859 -0.2541430 2021-Feb-12 15:00 0.922486277505 -0.2214907 2021-Feb-12 18:00 0.922471466478 -0.1888354 2021-Feb-12 21:00 0.922459012981 -0.1561775 2021-Feb-13 00:00 0.922448917179 -0.1235175 2021-Feb-13 03:00 0.922441179210 -0.0908559 2021-Feb-13 06:00 0.922435799178 -0.0581930 2021-Feb-13 09:00 0.922432777154 -0.0255294 2021-Feb-13 12:00 0.922432113178 0.0071346 2021-Feb-13 15:00 0.922433807259 0.0397984 2021-Feb-13 18:00 0.922437859374 0.0724617 2021-Feb-13 21:00 0.922444269465 0.1051241 2021-Feb-14 00:00 0.922453037445 0.1377850 $$EOE ******************************************************************************* Column meaning: TIME Times PRIOR to 1962 are UT1, a mean-solar time closely related to the prior but now-deprecated GMT. Times AFTER 1962 are in UTC, the current civil or "wall-clock" time-scale. UTC is kept within 0.9 seconds of UT1 using integer leap-seconds for 1972 and later years. Conversion from the internal Barycentric Dynamical Time (TDB) of solar system dynamics to the non-uniform civil UT time-scale requested for output has not been determined for UTC times after the next July or January 1st. Therefore, the last known leap-second is used as a constant over future intervals. Time tags refer to the UT time-scale conversion from TDB on Earth regardless of observer location within the solar system, although clock rates may differ due to the local gravity field and no analog to "UT" may be defined for that location. Any 'b' symbol in the 1st-column denotes a B.C. date. First-column blank (" ") denotes an A.D. date. CALENDAR SYSTEM Mixed calendar mode was active such that calendar dates after AD 1582-Oct-15 (if any) are in the modern Gregorian system. Dates prior to 1582-Oct-5 (if any) are in the Julian calendar system, which is automatically extended for dates prior to its adoption on 45-Jan-1 BC. The Julian calendar is useful for matching historical dates. The Gregorian calendar more accurately corresponds to the Earth's orbital motion and seasons. A "Gregorian-only" calendar mode is available if such physical events are the primary interest. NOTE: "n.a." in output means quantity "not available" at the print-time. 'r rdot' = The Sun's apparent range ("r", light-time aberrated) and range-rate ("rdot") relative to the target center, as seen by the observer. A positive "rdot" means the target center was moving away from the Sun, negative means moving toward the Sun. Units: AU and KM/S Computations by ... Solar System Dynamics Group, Horizons On-Line Ephemeris System 4800 Oak Grove Drive, Jet Propulsion Laboratory Pasadena, CA 91109 USA General site: https://ssd.jpl.nasa.gov/ Mailing list: https://ssd.jpl.nasa.gov/email_list.html System news : https://ssd.jpl.nasa.gov/horizons/news.html User Guide : https://ssd.jpl.nasa.gov/horizons/manual.html Connect : browser https://ssd.jpl.nasa.gov/horizons/app.html#/x API https://ssd-api.jpl.nasa.gov/doc/horizons.html command-line telnet ssd.jpl.nasa.gov 6775 e-mail/batch https://ssd.jpl.nasa.gov/ftp/ssd/horizons_batch.txt scripts https://ssd.jpl.nasa.gov/ftp/ssd/SCRIPTS Author : Jon.D.Giorgini@jpl.nasa.gov ******************************************************************************* !$$SOF COMMAND = '2023 CX1' QUANTITIES = '19' START_TIME = '2021-Feb-12' STEP_SIZE = '3 hours' STOP_TIME = '2021-Feb-14'